Gadsden, AL

12:22 AM CDT on March 24, 2017 (GMT -0500)
Gadsden Municipal

Weather History for KGAD - February, 2013

Change the Weather History Date:

Monday, February 25, 2013

  Actual Average Record
Temperature  
Mean Temperature 50 °F -  
Max Temperature 60 °F 56 °F 79 °F (1930)
Min Temperature 39 °F 36 °F 22 °F (1947)
Degree Days  
Heating Degree Days 16    
Moisture  
Dew Point 37 °F    
Average Humidity 65    
Maximum Humidity 93    
Minimum Humidity 53    
Precipitation  
Precipitation 0.57 in - - ()
Sea Level Pressure  
Sea Level Pressure 29.87 in    
Wind  
Wind Speed 8 mph (ENE)    
Max Wind Speed 18 mph    
Max Gust Speed 24 mph    
Visibility 10 miles    
Events      
Averages and records for this station are not official NWS values.
T = Trace of Precipitation, MM = Missing Value Source: NWS Daily Summary

Daily Weather History Graph

Daily Weather History Graph

Search for Another Location

Airport or City:

Trip Planner

Search our weather history database for the weather conditions in past years. The results will help you decide how hot, cold, wet, or windy it might be!

Date:

Astronomy

Feb. 25, 2013 Rise Set
Actual Time 6:17 AM CST 5:37 PM CST
Civil Twilight 5:52 AM CST 6:02 PM CST
Nautical Twilight 5:23 AM CST 6:31 PM CST
Astronomical Twilight 4:54 AM CST 7:00 PM CST
Moon 5:47 PM CST (2/25) 5:49 AM CST (2/25)
Length of Visible Light 12h 10m
Length of Day
11h 20m
Full, 100% of the Moon is Illuminated
Feb 25
Full
Feb 25
Full
Mar 4
Last Quarter
Mar 11
New
Mar 19
First Quarter

Hourly Weather History & Observations

Time (CST) Temp. Windchill Dew Point Humidity Pressure Visibility Wind Dir Wind Speed Gust Speed Precip Events Conditions
12:15 AM 41.0 °F - 33.8 °F 76% 29.96 in 10.0 mi Calm Calm - N/A   Clear
12:35 AM 39.2 °F - 35.6 °F 87% 29.95 in 10.0 mi Calm Calm - N/A   Clear
12:55 AM 42.8 °F - 33.8 °F 70% 29.95 in 10.0 mi Calm Calm - N/A   Clear
1:15 AM 42.8 °F 38.6 °F 33.8 °F 70% 29.94 in 10.0 mi NNE 6.9 mph - N/A   Clear
1:35 AM 42.8 °F 40.1 °F 33.8 °F 70% 29.94 in 10.0 mi NNE 4.6 mph - N/A   Clear
1:55 AM 42.8 °F - 32.0 °F 66% 29.94 in 10.0 mi Calm Calm - N/A   Clear
2:15 AM 42.8 °F 38.0 °F 33.8 °F 70% 29.94 in 10.0 mi East 8.1 mph - N/A   Clear
2:35 AM 44.6 °F 41.4 °F 32.0 °F 61% 29.94 in 10.0 mi NE 5.8 mph - N/A   Clear
2:55 AM 44.6 °F 40.2 °F 32.0 °F 61% 29.93 in 10.0 mi ENE 8.1 mph - N/A   Clear
3:15 AM 44.6 °F 39.7 °F 32.0 °F 61% 29.92 in 10.0 mi ENE 9.2 mph - N/A   Clear
3:35 AM 44.6 °F 40.2 °F 32.0 °F 61% 29.92 in 10.0 mi NE 8.1 mph - N/A   Clear
3:55 AM 44.6 °F 39.7 °F 32.0 °F 61% 29.92 in 10.0 mi NE 9.2 mph - N/A   Clear
4:15 AM 44.6 °F 39.7 °F 30.2 °F 57% 29.90 in 10.0 mi NE 9.2 mph - N/A   Clear
4:35 AM 44.6 °F 39.7 °F 30.2 °F 57% 29.91 in 10.0 mi ENE 9.2 mph - N/A   Clear
4:55 AM 44.6 °F 39.2 °F 30.2 °F 57% 29.93 in 10.0 mi ENE 10.4 mph - N/A   Clear
5:15 AM 44.6 °F 39.7 °F 30.2 °F 57% 29.93 in 10.0 mi NE 9.2 mph - N/A   Partly Cloudy
5:35 AM 44.6 °F 38.8 °F 30.2 °F 57% 29.93 in 10.0 mi NE 11.5 mph - N/A   Clear
5:55 AM 44.6 °F 39.7 °F 28.4 °F 53% 29.94 in 10.0 mi NE 9.2 mph - N/A   Scattered Clouds
6:15 AM 44.6 °F 39.2 °F 28.4 °F 53% 29.94 in 10.0 mi ENE 10.4 mph - N/A   Overcast
6:35 AM 44.6 °F 40.2 °F 28.4 °F 53% 29.95 in 10.0 mi ENE 8.1 mph - N/A   Overcast
6:55 AM 44.6 °F 39.7 °F 28.4 °F 53% 29.95 in 10.0 mi NE 9.2 mph - N/A   Overcast
7:15 AM 44.6 °F 39.2 °F 30.2 °F 57% 29.97 in 10.0 mi East 10.4 mph - N/A   Overcast
7:36 AM 44.6 °F 39.2 °F 30.2 °F 57% 29.97 in 10.0 mi East 10.4 mph - N/A   Overcast
7:55 AM 44.6 °F 39.2 °F 30.2 °F 57% 29.98 in 10.0 mi East 10.4 mph - N/A   Overcast
8:15 AM 44.6 °F 38.8 °F 30.2 °F 57% 29.97 in 10.0 mi ENE 11.5 mph - N/A   Overcast
8:35 AM 44.6 °F 39.7 °F 30.2 °F 57% 29.97 in 10.0 mi NE 9.2 mph - N/A   Overcast
8:55 AM 44.6 °F 38.8 °F 30.2 °F 57% 29.96 in 10.0 mi ENE 11.5 mph - N/A   Mostly Cloudy
9:15 AM 46.4 °F 41.5 °F 32.0 °F 57% 29.96 in 10.0 mi NE 10.4 mph - N/A   Mostly Cloudy
9:35 AM 46.4 °F 41.5 °F 32.0 °F 57% 29.94 in 10.0 mi NE 10.4 mph - N/A   Mostly Cloudy
9:55 AM 46.4 °F 42.4 °F 33.8 °F 62% 29.95 in 10.0 mi ENE 8.1 mph 16.1 mph N/A   Overcast
10:15 AM 48.2 °F - 33.8 °F 58% 29.94 in 10.0 mi ENE 12.7 mph - N/A   Overcast
10:35 AM 46.4 °F 41.9 °F 35.6 °F 66% 29.94 in 10.0 mi ENE 9.2 mph - N/A   Overcast
10:55 AM 48.2 °F - 35.6 °F 62% 29.93 in 10.0 mi NE 13.8 mph - N/A   Overcast
11:15 AM 50.0 °F - 35.6 °F 58% 29.93 in 10.0 mi NE 12.7 mph - N/A   Overcast
11:35 AM 51.8 °F - 39.2 °F 62% 29.92 in 10.0 mi ENE 17.3 mph - N/A   Overcast
11:55 AM 53.6 °F - 39.2 °F 58% 29.91 in 10.0 mi East 13.8 mph - N/A   Overcast
12:16 PM 53.6 °F - 39.2 °F 58% 29.90 in 10.0 mi ENE 13.8 mph 20.7 mph N/A   Overcast
12:35 PM 53.6 °F - 41.0 °F 62% 29.88 in 10.0 mi East 11.5 mph - N/A   Overcast
12:55 PM 55.4 °F - 41.0 °F 58% 29.87 in 10.0 mi ENE 15.0 mph - N/A   Overcast
1:15 PM 55.4 °F - 41.0 °F 58% 29.86 in 10.0 mi ENE 16.1 mph - N/A   Overcast
1:35 PM 55.4 °F - 41.0 °F 58% 29.86 in 10.0 mi East 12.7 mph - N/A   Overcast
1:55 PM 55.4 °F - 42.8 °F 63% 29.85 in 10.0 mi East 12.7 mph - N/A   Overcast
2:16 PM 55.4 °F - 41.0 °F 58% 29.83 in 10.0 mi East 10.4 mph - N/A   Overcast
2:35 PM 59.0 °F - 44.6 °F 59% 29.82 in 10.0 mi SE 11.5 mph 16.1 mph N/A   Overcast
2:56 PM 60.8 °F - 44.6 °F 55% 29.82 in 10.0 mi SE 15.0 mph 19.6 mph N/A   Overcast
3:15 PM 59.0 °F - 42.8 °F 55% 29.82 in 10.0 mi ESE 11.5 mph 16.1 mph N/A   Overcast
3:35 PM 57.2 °F - 42.8 °F 59% 29.81 in 10.0 mi ESE 16.1 mph 19.6 mph N/A   Overcast
3:55 PM 55.4 °F - 42.8 °F 63% 29.81 in 10.0 mi ESE 18.4 mph 24.2 mph N/A   Overcast
4:15 PM 55.4 °F - 41.0 °F 58% 29.80 in 10.0 mi East 13.8 mph - N/A   Overcast
4:35 PM 53.6 °F - 39.2 °F 58% 29.80 in 10.0 mi ESE 13.8 mph - N/A   Overcast
4:55 PM 53.6 °F - 39.2 °F 58% 29.79 in 10.0 mi East 12.7 mph 17.3 mph N/A   Overcast
5:15 PM 53.6 °F - 39.2 °F 58% 29.78 in 10.0 mi ESE 11.5 mph - N/A   Overcast
5:35 PM 51.8 °F - 39.2 °F 62% 29.80 in 10.0 mi East 12.7 mph 20.7 mph N/A   Overcast
5:55 PM 51.8 °F - 39.2 °F 62% 29.81 in 10.0 mi ESE 10.4 mph - N/A   Overcast
6:15 PM 51.8 °F - 39.2 °F 62% 29.80 in 10.0 mi East 15.0 mph 19.6 mph N/A   Overcast
6:35 PM 51.8 °F - 39.2 °F 62% 29.80 in 10.0 mi East 11.5 mph 16.1 mph N/A   Overcast
6:55 PM 51.8 °F - 39.2 °F 62% 29.79 in 10.0 mi East 11.5 mph - N/A   Overcast
7:15 PM 50.0 °F - 39.2 °F 66% 29.79 in 10.0 mi East 12.7 mph 20.7 mph N/A   Overcast
7:35 PM 50.0 °F - 39.2 °F 66% 29.78 in 10.0 mi East 12.7 mph - N/A   Overcast
8:15 PM 48.2 °F - 39.2 °F 71% 29.76 in 10.0 mi East 13.8 mph - N/A   Overcast
8:35 PM 48.2 °F - 39.2 °F 71% 29.76 in 10.0 mi East 13.8 mph - N/A   Overcast
8:55 PM 48.2 °F - 41.0 °F 76% 29.76 in 10.0 mi East 9.2 mph - N/A   Overcast
9:15 PM 48.2 °F - 42.8 °F 82% 29.76 in 7.0 mi East 10.4 mph 18.4 mph 0.05 in   Overcast
9:35 PM 46.4 °F 41.9 °F 42.8 °F 87% 29.76 in 5.0 mi East 9.2 mph - 0.14 in   Overcast
9:55 PM 46.4 °F 41.5 °F 42.8 °F 87% 29.74 in 7.0 mi East 10.4 mph - 0.20 in   Overcast
10:15 PM 46.4 °F 42.4 °F 42.8 °F 87% 29.76 in 5.0 mi East 8.1 mph - 0.05 in   Overcast
10:35 PM 46.4 °F 43.5 °F 42.8 °F 87% 29.75 in 4.0 mi East 5.8 mph - 0.18 in   Overcast
10:55 PM 46.4 °F 41.9 °F 42.8 °F 87% 29.74 in 5.0 mi East 9.2 mph - 0.29 in   Overcast
11:15 PM 46.4 °F 41.5 °F 42.8 °F 87% 29.71 in 7.0 mi ENE 10.4 mph - 0.04 in   Overcast
11:35 PM 44.6 °F 37.4 °F 42.8 °F 93% 29.64 in 8.0 mi East 16.1 mph - 0.07 in   Overcast
11:55 PM 44.6 °F 38.1 °F 42.8 °F 93% 29.64 in 10.0 mi East 13.8 mph 19.6 mph 0.08 in   Overcast